Simultaneous Nadir Overpasses (SNOs) Predictions

Prediction of SNOs between GOES-16 and TERRA Satellite Orbit:

Table of predicted SNOs for the next 14.0 days since TLE Epoch: 11/23/2019
Index Date Time (GOES-16) GOES-16 Lat,Lon TERRA Lat,Lon Distance(km) Time Diff (sec)
1 11/23/2019 15:29:44 0.02, -75.20 0.06, -75.26 8.49 80
2 11/25/2019 15:20:14 0.02, -75.21 -0.59, -72.31 328.89 80
3 11/26/2019 03:41:38 -0.02, -75.20 -0.54, -77.50 262.46 80
4 11/28/2019 03:26:49 -0.02, -75.21 0.14, -74.56 74.63 80
5 11/30/2019 03:14:39 -0.01, -75.23 0.74, -71.61 411.90 80
6 11/30/2019 15:38:06 0.01, -75.25 0.31, -76.77 172.93 50
7 12/02/2019 15:23:47 0.00, -75.27 -0.32, -73.83 165.06 80
8 12/03/2019 03:47:51 -0.00, -75.27 -0.77, -79.02 425.84 80
9 12/05/2019 03:35:42 0.00, -75.31 -0.17, -76.07 87.15 80




NCC Satellite Simultaneous Nadir Overpasses (SNOs) Prediction Service
